Location: Ostrava
(49.8330°N, 18.2830°E)
Time: 13:07:36
(UTC+02:00)

Transit 2A - All Passes

Search period start: 23 July 2016 00:00
Search period end: 02 August 2016 00:00
Orbit: 591 x 968 km, 66.7° (Epoch: 23 July)

Date Brightness Start Highest point End Pass type
(mag) Time Alt. Az. Time Alt. Az. Time Alt. Az.
23 Jul - 01:15:42 10° NNW 01:21:48 42° NE 01:27:37 10° ESE visible
23 Jul - 02:59:09 10° NW 03:05:20 54° WSW 03:11:09 10° SSE visible
23 Jul - 04:46:26 10° W 04:47:11 10° W 04:47:55 10° WSW daylight
23 Jul - 16:04:34 10° ESE 16:06:03 11° E 16:07:32 10° E daylight
23 Jul - 17:42:10 10° SSW 17:47:56 57° ESE 17:54:09 10° NE daylight
23 Jul - 19:25:49 10° WSW 19:31:32 41° NW 19:37:33 10° NNE daylight
23 Jul - 21:12:10 10° WNW 21:16:36 19° NNW 21:21:05 10° NNE visible
23 Jul - 22:58:03 10° NNW 23:02:21 18° N 23:06:38 10° NE visible
24 Jul - 00:41:45 10° NNW 00:47:35 35° NE 00:53:12 10° E visible
24 Jul - 02:25:04 10° NW 02:31:26 72° WSW 02:37:24 10° SSE visible
24 Jul - 04:10:15 10° WNW 04:13:36 15° W 04:16:50 10° SW visible
24 Jul - 17:08:33 10° S 17:14:05 43° ESE 17:20:01 10° NE daylight
24 Jul - 18:51:29 10° WSW 18:57:22 50° NW 19:03:36 10° NNE daylight
24 Jul - 20:37:30 10° WNW 20:42:12 21° NNW 20:46:58 10° NNE daylight
24 Jul - 22:23:46 10° NW 22:27:54 17° N 22:32:02 10° NE visible
25 Jul - 00:07:46 10° NNW 00:13:19 30° NNE 00:18:43 10° E visible
25 Jul - 01:51:03 10° NW 01:57:29 89° NE 02:03:31 10° SE visible
25 Jul - 03:35:28 10° WNW 03:39:58 21° WSW 03:44:15 10° SSW visible
25 Jul - 16:35:09 10° S 16:40:18 32° ESE 16:45:48 10° NE daylight
25 Jul - 18:17:17 10° SW 18:23:15 63° NW 18:29:37 10° NNE daylight
25 Jul - 20:02:52 10° WNW 20:07:50 24° NNW 20:12:55 10° NNE daylight
25 Jul - 21:49:24 10° NW 21:53:27 17° N 21:57:30 10° NE visible
25 Jul - 23:33:46 10° NNW 23:39:01 26° NNE 23:44:07 10° E visible
26 Jul - 01:17:03 10° NW 01:23:27 70° NE 01:29:29 10° SE visible
26 Jul - 03:01:01 10° NW 03:06:15 28° WSW 03:11:13 10° SSW visible
26 Jul - 16:01:59 10° SSE 16:06:35 24° ESE 16:11:26 10° NE daylight
26 Jul - 17:43:12 10° SW 17:49:13 80° NW 17:55:38 10° NE daylight
26 Jul - 19:28:15 10° W 19:33:30 28° NNW 19:38:54 10° NNE daylight
26 Jul - 21:14:55 10° NW 21:18:59 17° N 21:23:04 10° NE visible
26 Jul - 22:59:44 10° NNW 23:04:40 22° NNE 23:09:30 10° ENE visible
27 Jul - 00:43:04 10° NNW 00:49:23 56° NE 00:55:20 10° SE visible
27 Jul - 02:26:45 10° NW 02:32:30 38° WSW 02:37:55 10° S visible
27 Jul - 15:29:09 10° SE 15:32:55 17° ESE 15:36:50 10° ENE daylight
27 Jul - 17:09:14 10° SSW 17:15:13 81° ESE 17:21:38 10° NE daylight
27 Jul - 18:53:44 10° W 18:59:12 32° NW 19:04:56 10° NNE daylight
27 Jul - 20:40:21 10° NW 20:44:32 18° N 20:48:45 10° NNE daylight
27 Jul - 22:25:39 10° NNW 22:30:17 20° NNE 22:34:50 10° ENE visible
28 Jul - 00:09:06 10° NNW 00:15:14 45° NE 00:21:03 10° ESE visible
28 Jul - 01:52:35 10° NW 01:58:41 50° WSW 02:04:24 10° S visible
28 Jul - 14:57:02 10° ESE 14:59:19 12° E 15:01:39 10° ENE daylight
28 Jul - 16:35:25 10° SSW 16:41:18 62° ESE 16:47:34 10° NE daylight
28 Jul - 18:19:16 10° WSW 18:24:59 39° NW 18:30:57 10° NNE daylight
28 Jul - 20:05:43 10° WNW 20:10:06 19° NNW 20:14:32 10° NNE daylight
28 Jul - 21:51:30 10° NNW 21:55:51 19° NNE 22:00:10 10° NE visible
28 Jul - 23:35:09 10° NNW 23:41:02 37° NE 23:46:40 10° ESE visible
29 Jul - 01:18:30 10° NW 01:24:49 67° WSW 01:30:42 10° SSE visible
29 Jul - 03:04:01 10° WNW 03:06:53 14° W 03:09:39 10° SW visible
29 Jul - 16:01:46 10° S 16:07:26 46° ESE 16:13:28 10° NE daylight
29 Jul - 17:44:55 10° WSW 17:50:48 47° NW 17:57:00 10° NNE daylight
29 Jul - 19:31:03 10° WNW 19:35:41 21° NNW 19:40:24 10° NNE daylight
29 Jul - 21:17:14 10° NNW 21:21:25 18° N 21:25:33 10° NE visible
29 Jul - 23:01:10 10° NNW 23:06:47 31° NNE 23:12:12 10° E visible
30 Jul - 00:44:27 10° NW 00:50:52 86° SW 00:56:51 10° SSE visible
30 Jul - 02:29:04 10° WNW 02:33:15 19° WSW 02:37:15 10° SSW visible
30 Jul - 15:28:18 10° S 15:33:38 35° ESE 15:39:17 10° NE daylight
30 Jul - 17:10:40 10° SW 17:16:41 59° NW 17:23:02 10° NNE daylight
30 Jul - 18:56:23 10° WNW 19:01:19 23° NNW 19:06:20 10° NNE daylight
30 Jul - 20:42:54 10° NW 20:46:57 17° N 20:51:01 10° NE daylight
30 Jul - 22:27:11 10° NNW 22:32:30 26° NNE 22:37:38 10° E visible
31 Jul - 00:10:27 10° NW 00:16:52 75° NE 00:22:51 10° SE visible
31 Jul - 01:54:33 10° NW 01:59:34 26° WSW 02:04:19 10° SSW visible
31 Jul - 14:55:04 10° SSE 14:59:53 26° ESE 15:04:58 10° NE daylight
31 Jul - 16:36:32 10° SW 16:42:37 75° NW 16:49:03 10° NE daylight
31 Jul - 18:21:46 10° W 18:26:58 27° NNW 18:32:19 10° NNE daylight
31 Jul - 20:08:26 10° NW 20:12:30 17° N 20:16:33 10° NE daylight
31 Jul - 21:53:09 10° NNW 21:58:09 23° NNE 22:03:01 10° ENE visible
31 Jul - 23:36:29 10° NNW 23:42:48 59° NE 23:48:43 10° SE visible
01 Aug - 01:20:14 10° NW 01:25:50 35° WSW 01:31:05 10° S visible
01 Aug - 14:22:08 10° SSE 14:26:13 19° ESE 14:30:27 10° ENE daylight
01 Aug - 16:02:33 10° SSW 16:08:37 86° ESE 16:15:02 10° NE daylight
01 Aug - 17:47:12 10° W 17:52:41 31° NNW 17:58:19 10° NNE daylight
01 Aug - 19:33:53 10° NW 19:38:02 18° N 19:42:13 10° NNE daylight
01 Aug - 21:19:05 10° NNW 21:23:46 21° NNE 21:28:22 10° ENE visible
01 Aug - 23:02:31 10° NNW 23:08:40 47° NE 23:14:29 10° ESE visible
